Tracking 20719 objects as of 26-May-2020
HD Live streaming from Space Station
objects crossing your sky now

COSMOS 1510

Track COSMOS 1510 now!
10-day predictions
COSMOS 1510 is classified as:


NORAD ID: 14521
Int'l Code: 1983-115A
Perigee: 1,486.6 km
Apogee: 1,531.0 km
Inclination: 73.6 °
Period: 116.0 minutes
Semi major axis: 7879 km
RCS: 10.4266 m2 (large)
Launch date: November 24, 1983
Source: Commonwealth of Independent States (former USSR) (CIS)
Launch site: PLESETSK MISSILE AND SPACE COMPLEX (PKMTR)
aabbcc
Your satellite tracking list
Your tracking list is empty




NASA's NSSDC Master Catalog

Two Line Element Set (TLE):
1 14521U 83115A   20146.29487604 +.00000004 +00000-0 +15874-3 0  9996
2 14521 073.6204 037.4123 0028180 262.8509 235.8066 12.41163333654347
Source of the keplerian elements: AFSPC